This demonstration page uses our WeatherBlox Daily Observations layout. Learn more.

Left ArrowRight Arrow

31.31129, -92.44514

Hourly Observations for August 1, 2016

Temp ( °F °C ) Dew Point ( °F °C ) Humidity (%) Winds ( mph kmh ) Pressure ( in mb ) Visibility ( mi km ) Precip ( " mm )
12:53 am 00:53 Mostly Clear 78 25.6 76 24.4 93 93 SE 6 9 30.04 1017 10 16 0.00 0.00
1:53 am 01:53 Clear 77 25 76 24.4 96 96 Calm 30.03 1017 10 16 0.00 0.00
2:53 am 02:53 Clear 77 25 76 24.4 96 96 Calm 30.02 1017 9 14 0.00 0.00
3:53 am 03:53 Clear 77 25 75 23.9 94 94 Calm 30.01 1016 10 16 0.00 0.00
4:53 am 04:53 Clear 76 24.4 75 23.9 97 97 SE 5 7 30.02 1017 8 13 0.00 0.00
5:53 am 05:53 Clear 75 23.9 75 23.9 100 100 Calm 30.03 1017 8 13 0.00 0.00
6:53 am 06:53 Sunny 75 23.9 75 23.9 100 100 SE 3 6 30.05 1018 8 13 0.00 0.00
7:53 am 07:53 Sunny 77 25 76 24.4 96 96 Calm 30.06 1018 8 13 0.00 0.00
8:53 am 08:53 Sunny 81 27.2 77 25 88 88 Calm 30.08 1019 8 13 0.00 0.00
9:53 am 09:53 Sunny 85 29.4 77 25 77 77 Calm 30.08 1019 9 14 0.00 0.00
10:53 am 10:53 Sunny 88 31.1 76 24.4 68 68 VRB 3 6 30.08 1019 8 13 0.00 0.00
11:53 am 11:53 Hazy 90 32.2 76 24.4 63 63 NNW 5 7 30.08 1019 6 10 0.00 0.00
12:53 pm 12:53 Hazy 92 33.3 75 23.9 58 58 VRB 3 6 30.06 1018 6 10 0.00 0.00
1:53 pm 13:53 Partly Cloudy 91 32.8 74 23.3 57 57 W 5 7 30.05 1018 7 11 0.00 0.00
2:53 pm 14:53 Sunny 94 34.4 73 22.8 51 51 VRB 5 7 30.03 1017 8 13 0.00 0.00
3:53 pm 15:53 Sunny 94 34.4 73 22.8 51 51 SW 5 7 30.01 1016 8 13 0.00 0.00
4:53 pm 16:53 Mostly Sunny 94 34.4 73 22.8 51 51 NW 5 7 29.99 1016 8 13 0.00 0.00
5:53 pm 17:53 Mostly Cloudy 96 35.6 75 23.9 51 51 N 3 6 29.99 1016 8 13 0.00 0.00
6:53 pm 18:53 Cloudy 92 33.3 75 23.9 58 58 SE 6 9 29.99 1016 7 11 0.00 0.00
7:53 pm 19:53 Mostly Sunny 87 30.6 77 25 72 72 SSE 6 9 30.00 1016 8 13 0.00 0.00
8:53 pm 20:53 Clear 83 28.3 79 26.1 88 88 SE 6 9 30.02 1017 9 14 0.00 0.00
9:53 pm 21:53 Clear 82 27.8 79 26.1 90 90 S 3 6 30.03 1017 8 13 0.00 0.00
10:53 pm 22:53 Clear 81 27.2 78 25.6 91 91 S 3 6 30.04 1017 7 11 0.00 0.00
11:53 pm 23:53 Clear 79 26.1 78 25.6 97 97 SSE 5 7 30.05 1018 7 11 0.00 0.00

Powered by AerisWeather